Wind_Speed
19 20 19 18 18 17 17 17 17 17 18 18 19 20 20 22 22 23 22 22 22 22 21 21 20 19 19 18 17 15 14 13 11 10 9 8 7 7 7 7 7 8 9 10
20 20 19 18 18 17 17 17 17 17 18 18 19 20 20 22 22 23 22 22 22 22 22 21 21 20 20 20 19 18 17 16 15 13 12 11 10 10 9 8 8 9 9 9
19 19 19 18 18 17 17 17 17 18 18 18 18 19 19 20 21 22 22 23 23 23 23 22 22 22 21 21 20 20 19 18 18 17 15 14 13 13 12 11 11 10 10 10
19 19 19 18 17 17 16 16 16 17 17 17 17 18 18 19 19 20 20 21 22 23 22 22 22 22 22 21 21 21 20 20 19 18 18 17 16 15 14 13 13 12 11 11
18 18 18 18 17 16 16 15 16 16 16 16 17 17 17 18 18 19 19 20 20 21 21 22 22 22 22 22 22 22 21 21 20 20 20 20 19 19 17 16 15 14 13 12
16 17 17 17 17 15 15 14 15 15 16 16 16 16 16 17 17 18 18 19 19 19 20 21 21 21 21 21 21 22 22 22 21 21 21 22 22 21 20 20 18 17 15 13
15 16 16 16 16 15 14 13 13 14 14 14 15 15 16 16 16 16 17 17 18 18 18 19 19 20 20 20 21 21 21 22 22 23 23 23 23 23 23 22 21 19 17 15
12 13 14 15 15 15 13 12 11 12 12 13 13 13 13 14 14 15 15 16 17 17 17 17 18 18 19 20 20 20 21 21 22 23 24 24 24 25 25 24 23 22 20 18
10 11 12 13 13 13 13 12 11 10 10 10 11 11 11 12 13 14 15 15 16 16 16 16 17 17 18 19 19 19 20 21 22 23 24 24 25 26 26 26 25 24 23 21
7 8 10 10 11 11 10 11 10 9 8 9 9 9 10 11 12 13 14 15 15 16 16 16 16 16 17 18 18 19 19 21 22 22 23 24 25 26 26 27 26 26 25 23
7 7 7 8 9 9 8 8 9 8 7 7 7 7 8 9 10 12 13 14 14 15 15 15 15 15 16 17 18 18 19 20 21 22 23 23 24 25 26 27 27 26 26 25
8 7 7 6 6 7 7 6 6 7 7 6 7 6 6 7 8 10 11 12 13 13 14 14 15 15 15 16 17 18 19 20 21 22 22 23 24 25 25 25 26 26 26 26
10 9 8 7 6 6 5 5 5 5 5 5 6 6 6 6 7 8 9 10 11 12 12 13 13 14 14 15 15 16 18 19 20 21 22 22 23 24 24 25 25 25 25 25
12 11 10 9 8 7 6 6 5 5 4 4 5 5 6 6 7 7 8 9 9 10 11 11 12 12 13 13 14 15 17 18 19 20 20 21 22 22 23 23 23 23 23 23
14 14 13 11 11 10 9 8 7 6 6 6 5 5 5 6 6 7 7 8 8 9 9 10 10 10 11 12 13 14 15 16 17 18 19 20 20 21 21 21 22 22 22 22
17 16 15 14 13 13 12 11 10 9 8 7 7 7 6 6 6 6 7 7 8 8 8 9 9 10 10 10 11 12 13 14 15 17 17 18 19 19 20 20 20 20 20 20
21 20 18 17 16 15 15 14 13 12 11 10 9 8 8 7 7 7 7 7 7 8 8 8 9 9 9 9 10 10 11 12 13 14 15 16 17 17 18 18 18 18 18 18
25 23 22 20 19 18 18 17 16 15 14 12 11 11 10 9 9 8 8 7 7 7 8 8 8 9 9 9 9 10 10 10 11 12 12 14 15 15 16 16 16 16 16 16
29 27 25 24 23 22 21 20 19 18 17 16 15 14 13 12 11 10 10 10 9 9 9 9 9 9 9 9 9 9 9 9 10 10 10 11 12 13 13 14 14 14 14 14
32 31 29 28 27 26 25 24 23 22 21 20 19 18 16 15 14 13 13 12 12 11 11 10 10 10 10 10 10 9 9 9 9 9 9 9 9 9 10 11 11 11 11 11
36 35 34 32 31 30 29 28 27 26 25 24 23 22 21 20 18 18 17 16 15 14 14 13 13 12 12 11 11 11 10 10 10 10 10 9 9 8 8 8 8 8 8 8
41 39 38 37 36 34 33 32 31 30 29 28 27 26 25 24 23 22 21 20 18 18 17 17 16 15 15 14 14 13 12 12 12 11 11 10 10 9 8 8 7 7 7 6
45 44 43 42 41 40 38 37 36 35 34 33 32 31 30 29 27 26 26 24 23 22 22 21 20 19 18 18 17 16 16 15 14 14 13 13 12 11 11 10 9 8 8 7
50 49 49 47 46 45 44 43 42 40 39 38 36 35 34 33 32 31 31 29 28 27 26 26 25 23 23 22 21 20 20 19 18 18 17 16 15 14 14 13 12 12 11 11
55 54 54 53 52 51 50 49 47 46 45 43 42 41 39 38 37 36 35 34 33 32 31 30 29 28 27 26 25 24 24 23 22 21 20 20 19 18 17 16 16 16 15 15
59 58 58 57 57 56 55 54 53 52 50 49 48 46 45 44 43 41 40 39 38 36 36 35 34 32 31 31 30 29 28 27 26 25 25 24 23 22 22 21 20 19 18 18
63 62 62 62 61 61 60 59 58 57 56 55 53 52 51 50 48 47 46 45 43 42 41 40 39 37 36 35 34 33 32 31 30 30 29 28 27 27 26 25 25 24 23 22
Wind_Direction
27 23 22 24 29 33 38 42 45 46 45 45 45 44 45 47 49 50 51 51 51 53 53 54 54 53 52 52 52 51 50 49 44 36 29 18 6 356 342 328 315 305 291 277
28 26 25 29 33 38 41 43 46 47 48 47 47 47 49 51 52 52 53 53 53 54 54 53 53 53 52 52 50 50 49 48 45 42 37 32 25 15 3 350 335 324 313 300
29 28 28 33 36 41 44 45 47 48 48 49 49 50 52 52 52 53 54 55 55 54 55 54 53 53 52 50 50 50 48 47 46 43 40 34 27 18 11 3 352 340 328 311
29 29 32 34 38 41 43 46 47 49 50 51 52 52 53 53 53 53 54 55 54 54 53 52 51 50 49 50 50 49 47 45 42 40 37 32 26 20 12 4 357 349 339 328
28 30 33 34 36 38 41 45 47 50 53 54 53 54 55 55 55 56 56 56 54 53 51 50 49 48 47 47 47 46 44 42 41 39 36 33 28 22 17 11 4 356 346 337
28 30 33 34 36 39 43 49 51 54 55 54 54 56 58 58 58 58 57 54 53 51 49 48 47 46 45 44 44 44 43 42 41 38 36 32 28 24 20 15 11 5 358 349
24 27 31 33 36 39 44 49 55 56 56 55 56 58 59 58 56 54 52 50 49 47 45 44 43 42 41 41 41 42 42 41 40 37 33 29 27 25 22 19 16 12 7 1
19 23 26 30 34 39 44 49 55 57 58 58 58 58 57 55 53 50 48 46 44 43 42 42 41 41 40 39 39 39 39 38 36 34 32 30 28 26 25 24 22 20 19 17
9 16 21 26 31 36 42 46 51 56 57 59 57 56 55 53 49 46 43 41 40 39 39 39 41 40 38 38 37 37 35 34 32 32 31 30 29 28 28 28 28 28 29 31
345 360 11 18 23 28 36 41 45 50 53 54 55 55 53 49 43 40 38 37 37 37 37 38 39 38 38 36 35 34 32 31 30 30 30 30 30 30 31 31 32 34 36 38
315 331 349 4 13 20 27 34 38 41 43 45 48 50 48 44 39 37 36 36 35 35 35 36 36 36 36 36 35 33 31 30 29 29 29 30 30 31 32 34 36 38 40 44
292 302 315 332 349 2 12 20 26 30 32 34 36 38 37 35 33 33 32 31 31 31 32 33 33 33 32 33 33 32 30 30 30 29 29 30 31 32 33 36 39 41 44 47
279 282 289 300 310 326 341 352 360 9 16 18 21 23 23 22 21 20 22 24 25 26 26 28 29 29 28 29 29 28 27 27 28 28 29 30 31 32 34 36 39 42 46 49
273 274 276 281 288 293 302 314 324 330 339 351 358 2 7 10 11 11 11 13 16 17 18 19 21 22 23 25 25 25 25 26 26 28 29 29 31 32 34 36 39 43 46 50
270 270 271 272 276 281 284 288 294 302 307 312 321 333 343 350 356 360 2 2 4 6 9 11 12 13 14 17 18 19 21 23 25 26 28 29 30 32 35 37 40 43 46 50
268 268 268 268 269 271 275 277 279 282 288 294 299 306 315 324 332 338 345 350 353 354 356 360 3 4 5 6 9 12 15 18 21 24 26 28 30 32 34 36 40 43 46 50
265 266 266 266 266 266 267 270 272 274 277 281 285 290 296 303 311 319 326 332 338 344 347 348 349 352 355 357 359 1 6 10 14 19 23 26 28 31 33 36 38 43 46 49
262 263 263 263 263 263 263 265 266 268 270 273 276 280 284 289 294 301 308 315 321 327 335 340 341 341 342 344 347 350 353 358 4 9 15 19 24 27 31 34 37 41 45 49
260 261 260 260 260 260 260 261 263 265 266 268 269 272 275 279 284 287 292 297 302 307 315 324 330 333 334 332 331 334 339 343 348 355 2 8 13 19 24 29 33 37 42 46
257 258 258 257 257 258 258 259 261 262 263 265 266 268 270 272 275 278 281 285 290 293 296 301 309 316 321 324 325 325 326 330 334 338 343 349 356 4 11 18 23 28 34 40
254 255 256 256 256 256 257 257 258 259 261 262 264 265 267 269 270 272 274 277 280 283 286 288 291 296 302 306 310 313 315 316 318 321 326 329 334 340 348 357 6 12 17 23
252 253 254 254 255 255 255 256 257 258 259 260 261 263 265 266 268 270 271 273 275 276 278 281 283 285 287 291 294 297 301 305 306 306 307 310 313 317 320 324 331 341 349 356
250 251 252 253 254 254 255 255 256 257 258 259 260 262 263 265 267 268 270 271 273 274 274 276 278 279 281 282 284 286 288 290 293 296 296 296 297 298 301 303 304 305 307 312
248 249 251 252 253 254 255 256 256 257 258 260 261 262 263 265 266 267 269 270 271 272 273 274 274 275 276 277 278 279 280 282 283 284 286 287 288 288 288 288 289 291 290 288
245 247 249 251 252 254 255 256 257 258 259 260 261 262 263 264 266 267 268 269 270 271 272 272 273 274 274 275 275 275 276 276 277 278 279 279 280 281 282 283 282 281 281 281
244 245 247 249 251 253 254 256 257 258 260 261 261 262 263 264 265 267 268 269 269 270 271 271 272 272 273 273 274 274 274 274 274 275 275 275 274 275 275 277 278 278 277 277
243 244 245 247 249 250 252 254 256 257 259 260 261 262 263 264 265 266 267 268 268 269 270 270 271 271 271 271 272 272 272 272 272 272 273 273 272 272 272 273 273 273 274 274
Height
5863 5859 5855 5852 5848 5844 5841 5837 5834 5831 5828 5825 5822 5819 5815 5812 5808 5805 5801 5798 5796 5793 5790 5788 5786 5784 5782 5780 5778 5777 5776 5775 5774 5773 5772 5772 5771 5770 5769 5768 5767 5766 5766 5765
5865 5862 5858 5854 5850 5847 5843 5840 5837 5834 5832 5829 5826 5822 5819 5816 5813 5810 5807 5804 5801 5798 5796 5793 5791 5789 5787 5785 5783 5781 5780 5778 5776 5775 5774 5772 5771 5769 5768 5766 5765 5764 5763 5762
5868 5865 5861 5858 5854 5850 5847 5844 5841 5838 5836 5832 5829 5826 5824 5821 5818 5815 5813 5810 5807 5804 5802 5799 5797 5794 5792 5790 5788 5785 5783 5781 5779 5777 5776 5774 5772 5769 5767 5765 5763 5761 5760 5758
5871 5868 5864 5863 5856 5853 5850 5847 5844 5841 5839 5836 5833 5830 5828 5825 5823 5820 5818 5815 5812 5810 5807 5805 5802 5800 5797 5795 5792 5790 5787 5785 5782 5780 5778 5775 5773 5770 5767 5764 5762 5759 5757 5755
5873 5870 5867 5863 5859 5856 5853 5851 5848 5845 5842 5840 5837 5834 5832 5830 5827 5825 5823 5820 5818 5815 5813 5810 5807 5805 5802 5799 5797 5794 5791 5788 5786 5783 5780 5777 5774 5771 5767 5764 5761 5757 5755 5752
5876 5872 5869 5868 5863 5859 5857 5854 5851 5848 5846 5843 5841 5839 5837 5834 5832 5830 5827 5825 5823 5820 5818 5815 5812 5809 5807 5804 5801 5798 5795 5792 5789 5786 5783 5780 5776 5772 5768 5764 5760 5756 5752 5749
5877 5875 5872 5869 5865 5862 5860 5858 5854 5852 5849 5847 5845 5843 5841 5838 5836 5834 5832 5829 5827 5825 5822 5819 5817 5814 5811 5808 5805 5802 5799 5796 5793 5790 5786 5782 5778 5774 5769 5764 5760 5755 5751 5747
5879 5876 5876 5871 5867 5865 5863 5859 5857 5855 5852 5851 5849 5846 5844 5842 5840 5838 5836 5833 5831 5828 5826 5823 5821 5818 5815 5812 5809 5806 5803 5800 5797 5793 5789 5785 5781 5776 5771 5766 5760 5755 5750 5746
5880 5880 5876 5872 5870 5867 5865 5862 5859 5857 5855 5853 5851 5850 5848 5846 5844 5841 5839 5837 5834 5832 5829 5827 5824 5821 5819 5816 5813 5810 5807 5804 5800 5797 5793 5788 5784 5779 5774 5768 5763 5757 5752 5747
5879 5878 5876 5873 5871 5869 5866 5864 5861 5859 5858 5856 5854 5852 5850 5848 5846 5844 5842 5840 5837 5835 5832 5830 5827 5825 5822 5819 5816 5813 5810 5807 5803 5800 5796 5791 5787 5782 5777 5771 5766 5761 5756 5751
5878 5877 5875 5874 5872 5870 5867 5865 5863 5861 5859 5857 5856 5854 5852 5851 5849 5846 5844 5842 5840 5837 5835 5833 5830 5828 5825 5822 5819 5817 5813 5810 5807 5803 5799 5795 5790 5786 5781 5775 5770 5765 5761 5756
5877 5876 5875 5874 5872 5870 5868 5866 5864 5862 5860 5859 5857 5855 5854 5852 5850 5848 5846 5844 5842 5840 5837 5835 5833 5830 5828 5825 5822 5820 5816 5813 5810 5806 5802 5798 5794 5789 5785 5780 5776 5771 5767 5763
5874 5873 5873 5872 5871 5869 5868 5866 5864 5863 5861 5860 5858 5856 5854 5853 5851 5849 5847 5845 5843 5841 5839 5837 5835 5832 5830 5827 5825 5822 5819 5816 5813 5809 5806 5802 5798 5794 5790 5786 5781 5777 5773 5770
5870 5870 5870 5869 5868 5868 5866 5865 5864 5862 5861 5860 5858 5856 5855 5853 5851 5850 5848 5846 5844 5842 5840 5838 5836 5834 5832 5829 5827 5824 5822 5819 5816 5812 5809 5805 5802 5798 5794 5790 5787 5783 5780 5776
5866 5866 5866 5866 5865 5865 5864 5863 5862 5861 5860 5859 5857 5856 5854 5853 5851 5850 5848 5847 5845 5843 5841 5839 5837 5835 5833 5831 5829 5826 5824 5821 5818 5815 5812 5809 5805 5802 5799 5795 5792 5788 5785 5782
5861 5861 5861 5861 5861 5861 5861 5860 5860 5859 5858 5857 5856 5855 5853 5852 5850 5849 5848 5846 5844 5843 5841 5839 5837 5836 5834 5832 5830 5828 5825 5823 5820 5818 5815 5812 5809 5806 5803 5800 5797 5794 5791 5788
5855 5855 5856 5856 5856 5857 5857 5857 5856 5856 5855 5854 5853 5852 5851 5850 5849 5848 5846 5845 5844 5842 5841 5839 5837 5835 5834 5832 5830 5828 5826 5824 5822 5820 5817 5815 5812 5809 5806 5803 5801 5798 5796 5793
5848 5849 5850 5850 5851 5851 5851 5851 5851 5851 5851 5850 5850 5849 5848 5847 5846 5845 5845 5843 5842 5841 5839 5838 5836 5835 5833 5831 5830 5828 5826 5825 5823 5821 5819 5817 5814 5812 5809 5807 5804 5802 5800 5798
5839 5841 5842 5843 5843 5844 5845 5845 5846 5846 5846 5846 5845 5845 5844 5844 5843 5842 5842 5841 5840 5839 5838 5836 5835 5833 5832 5830 5829 5827 5826 5824 5823 5821 5819 5818 5816 5814 5812 5810 5807 5805 5803 5801
5830 5831 5833 5834 5835 5836 5837 5838 5839 5839 5840 5840 5840 5840 5839 5839 5839 5838 5838 5837 5836 5836 5835 5834 5833 5832 5830 5829 5827 5826 5825 5823 5822 5820 5819 5818 5816 5815 5813 5811 5809 5808 5806 5804
5819 5821 5823 5824 5826 5827 5829 5830 5831 5831 5832 5833 5833 5833 5833 5833 5833 5833 5833 5833 5832 5832 5831 5830 5830 5829 5828 5827 5825 5824 5823 5822 5820 5819 5818 5817 5816 5814 5813 5812 5810 5809 5808 5806
5807 5809 5811 5813 5815 5817 5818 5820 5821 5822 5823 5824 5825 5826 5826 5826 5827 5827 5827 5827 5827 5827 5826 5826 5825 5825 5824 5823 5822 5821 5820 5819 5818 5817 5816 5815 5814 5813 5812 5811 5810 5809 5808 5807
5793 5795 5798 5800 5802 5804 5807 5809 5810 5812 5813 5815 5816 5817 5818 5819 5819 5819 5820 5820 5821 5820 5820 5820 5820 5820 5819 5819 5818 5817 5816 5816 5815 5814 5813 5812 5811 5811 5810 5809 5808 5807 5806 5806
5778 5780 5783 5786 5788 5791 5794 5796 5798 5800 5802 5804 5805 5807 5808 5809 5810 5811 5811 5812 5813 5813 5813 5813 5813 5813 5813 5813 5812 5812 5811 5811 5810 5809 5809 5808 5807 5807 5806 5806 5805 5804 5804 5803
5762 5765 5767 5770 5773 5776 5779 5781 5784 5787 5789 5791 5793 5795 5797 5798 5800 5801 5802 5802 5803 5804 5804 5804 5805 5805 5805 5805 5805 5805 5805 5804 5804 5804 5803 5803 5802 5802 5801 5801 5800 5800 5799 5799
5744 5748 5751 5754 5757 5760 5763 5766 5769 5772 5774 5777 5779 5781 5783 5785 5787 5788 5790 5791 5792 5793 5793 5794 5795 5795 5796 5796 5796 5797 5797 5797 5797 5797 5796 5796 5796 5796 5795 5795 5795 5794 5794 5793
5724 5729 5733 5736 5740 5743 5746 5749 5753 5755 5758 5761 5763 5766 5768 5770 5773 5774 5776 5777 5779 5780 5781 5782 5783 5784 5785 5786 5786 5787 5787 5787 5787 5788 5788 5788 5788 5788 5788 5788 5787 5787 5787 5787